Weather reports worldwide

Advertisment
Guernsey, United Kingdom (3894): temperature & dewpoint: 17.03.2019 09:00:00 - 23.03.2019 09:00:00 (GMT)Guernsey, United Kingdom (3894): temperature -20cm & temperature -100cm: 17.03.2019 09:00:00 - 23.03.2019 09:00:00 (GMT)Guernsey, United Kingdom (3894): wind speed & gusts: 17.03.2019 09:00:00 - 23.03.2019 09:00:00 (GMT)Guernsey, United Kingdom (3894): wind direction: 17.03.2019 09:00:00 - 23.03.2019 09:00:00 (GMT)Guernsey, United Kingdom (3894): reduced air pressure: 17.03.2019 09:00:00 - 23.03.2019 09:00:00 (GMT)Guernsey, United Kingdom (3894): visibility: 17.03.2019 09:00:00 - 23.03.2019 09:00:00 (GMT)Guernsey, United Kingdom (3894): precipitation: 17.03.2019 09:00:00 - 23.03.2019 09:00:00 (GMT)
Date & Time tt [°C] td [°C] tt -20cm [°C] tt -100cm [°C] ff [km/h] ff [kn] fx [km/h] fx [kn] dd ppp [hPa] vv [km] rr [mm]
23.03.2019 09:00:00 10,0 7,9 10,2 10,0 4 2 - - - 1031,6 10 -
23.03.2019 08:00:00 9,2 7,5 - - 4 2 - - NE 1031,3 10 -
23.03.2019 07:00:00 7,1 6,0 - - 4 2 - - ESE 1030,9 10 -
23.03.2019 06:00:00 7,2 6,9 - - 4 2 - - ESE 1030,7 10 0,0
23.03.2019 05:00:00 7,2 6,9 - - 4 2 - - WNW 1030,5 18 -
23.03.2019 04:00:00 7,5 6,9 - - 4 2 - - W 1030,4 18 -
23.03.2019 03:00:00 6,8 6,1 - - 5 3 - - S 1030,0 20 -
23.03.2019 02:00:00 6,9 5,4 - - 5 3 - - SSE 1030,1 20 -
23.03.2019 01:00:00 6,4 5,0 - - 8 4 - - SSE 1030,3 20 -
23.03.2019 00:00:00 7,7 5,3 - - 5 3 - - ESE 1030,0 18 0,0
22.03.2019 23:00:00 7,7 5,7 - - 5 3 - - ESE 1030,2 18 -
22.03.2019 22:00:00 7,1 5,8 - - 5 3 - - E 1030,3 10 -
22.03.2019 21:00:00 7,4 6,3 - - 5 3 - - ENE 1029,9 10 -
22.03.2019 20:00:00 7,3 6,5 - - 5 3 - - NE 1029,7 9 -
22.03.2019 19:00:00 7,8 7,4 - - 5 3 - - NE 1029,4 6 -
22.03.2019 18:00:00 9,1 7,9 - - 5 3 - - NNW 1028,6 5 0,0
22.03.2019 17:00:00 10,9 8,2 - - 9 5 - - NW 1028,3 5 -
22.03.2019 16:00:00 11,0 8,5 - - 8 4 - - WSW 1028,7 6 -
22.03.2019 15:00:00 11,3 8,7 - - 8 4 - - S 1028,7 4,8 -
22.03.2019 14:00:00 10,6 8,8 - - 9 5 - - SSE 1029,0 3,9 -
22.03.2019 13:00:00 10,6 8,9 - - 13 7 - - SSE 1029,1 4,0 -
22.03.2019 12:00:00 9,9 8,5 - - 13 7 - - SE 1029,3 4,5 0,0
22.03.2019 11:00:00 10,1 8,6 - - 13 7 - - SE 1029,7 4,5 -
22.03.2019 10:00:00 9,7 8,4 - - 13 7 - - SE 1030,0 6 -
22.03.2019 09:00:00 9,1 8,3 10,2 9,9 13 7 - - SE 1030,0 6 -
22.03.2019 08:00:00 8,5 8,0 - - 9 5 - - ESE 1029,9 8 -
22.03.2019 07:00:00 8,0 7,6 - - 8 4 - - SE 1029,6 10 -
22.03.2019 06:00:00 6,2 5,7 - - 9 5 - - SE 1029,4 10 0,0
22.03.2019 05:00:00 7,5 6,7 - - 8 4 - - SE 1029,5 10 -
22.03.2019 04:00:00 8,2 7,2 - - 8 4 - - ESE 1029,8 10 -
22.03.2019 03:00:00 8,7 7,1 - - 5 3 - - SE 1030,5 10 -
22.03.2019 02:00:00 8,9 7,1 - - 13 7 - - SSE 1030,6 10 -
22.03.2019 01:00:00 8,9 7,9 - - 18 10 - - SE 1030,4 10 -
22.03.2019 00:00:00 9,1 7,2 - - 13 7 - - ESE 1031,1 10 0,0
21.03.2019 23:00:00 9,0 7,0 - - 9 5 - - ESE 1031,9 10 -
21.03.2019 22:00:00 9,0 6,8 - - 8 4 - - E 1032,2 10 -
21.03.2019 21:00:00 9,0 8,2 - - 5 3 - - - 1032,4 10 -
21.03.2019 20:00:00 9,2 8,5 - - 8 4 - - ENE 1032,6 10 -
21.03.2019 19:00:00 9,3 8,5 - - 5 3 - - ENE 1032,8 10 -
21.03.2019 18:00:00 9,6 8,5 - - 8 4 - - E 1032,6 10 0,0
21.03.2019 17:00:00 10,0 8,7 - - 8 4 - - E 1032,9 10 -
21.03.2019 16:00:00 10,4 9,1 - - 8 4 - - E 1033,0 10 -
21.03.2019 15:00:00 10,5 8,9 - - 5 3 - - ENE 1033,3 10 -
21.03.2019 14:00:00 10,5 9,6 - - 8 4 - - SE 1034,1 10 -
21.03.2019 13:00:00 10,6 9,7 - - 8 4 - - SSE 1034,9 3,0 -
21.03.2019 12:00:00 11,2 9,4 - - 8 4 - - ENE 1035,1 10 0,0
21.03.2019 11:00:00 11,1 9,5 - - 5 3 - - - 1035,2 10 -
21.03.2019 10:00:00 10,5 10,0 - - 4 2 - - - 1035,6 10 -
21.03.2019 09:00:00 10,0 9,9 10,2 9,7 4 2 - - W 1035,4 15 -
21.03.2019 08:00:00 9,8 9,7 - - 4 2 - - - 1035,2 4,0 -
21.03.2019 07:00:00 9,4 9,4 - - 5 3 - - - 1035,0 4,5 -
21.03.2019 06:00:00 9,3 9,3 - - 4 2 - - SW 1034,8 2,5 -
21.03.2019 05:00:00 9,4 9,3 - - 5 3 - - SSW 1034,6 5 -
21.03.2019 04:00:00 9,3 9,2 - - 8 4 - - S 1034,3 10 -
21.03.2019 03:00:00 9,3 9,3 - - 9 5 - - SSW 1034,5 10 -
21.03.2019 02:00:00 9,3 9,3 - - 9 5 - - SW 1034,8 10 -
21.03.2019 01:00:00 9,3 9,3 - - 5 3 - - SSW 1035,0 8 -
21.03.2019 00:00:00 9,3 9,3 - - 8 4 - - S 1035,3 10 0,0
20.03.2019 23:00:00 9,3 9,3 - - 5 3 - - SSW 1035,3 10 -
20.03.2019 22:00:00 9,4 9,4 - - 9 5 - - S 1035,4 10 -
20.03.2019 21:00:00 9,5 9,3 - - 8 4 - - SSW 1035,4 10 -
20.03.2019 20:00:00 9,3 8,8 - - 5 3 - - W 1035,2 10 -
20.03.2019 19:00:00 9,4 9,1 - - 5 3 - - W 1034,9 10 -
20.03.2019 18:00:00 9,7 9,1 - - 13 7 - - W 1034,6 10 -
20.03.2019 17:00:00 10,1 9,7 - - 13 7 - - W 1034,1 25 -
20.03.2019 16:00:00 10,0 9,9 - - 11 6 - - WSW 1034,1 10 -
20.03.2019 15:00:00 10,6 10,5 - - 13 7 - - WSW 1034,3 4,0 -
20.03.2019 14:00:00 10,1 10,0 - - 15 8 - - SW 1034,8 6 -
20.03.2019 13:00:00 10,1 10,0 - - 18 10 - - SW 1034,9 8 -
20.03.2019 12:00:00 9,7 9,7 - - 16 9 - - SW 1035,2 1,4 -
20.03.2019 11:00:00 9,5 9,5 - - 15 8 - - SW 1035,2 0,2 -
20.03.2019 10:00:00 9,6 9,6 - - 15 8 - - SSW 1034,9 0,2 -
20.03.2019 09:00:00 9,3 9,3 9,7 9,7 15 8 - - SSW 1034,5 0,1 -
20.03.2019 08:00:00 9,0 9,0 - - 13 7 - - SW 1034,1 0,1 -
20.03.2019 07:00:00 8,9 8,9 - - 13 7 - - SW 1033,4 0,2 -
20.03.2019 06:00:00 8,8 8,8 - - 13 7 - - SW 1033,1 0,5 -
20.03.2019 05:00:00 8,9 8,9 - - 13 7 - - SW 1032,7 0,3 -
20.03.2019 04:00:00 8,8 8,8 - - 15 8 - - SW 1032,5 0,4 -
20.03.2019 03:00:00 8,8 8,8 - - 16 9 - - WSW 1032,5 4,5 -
20.03.2019 02:00:00 8,3 8,2 - - 13 7 - - SW 1032,6 10 -
20.03.2019 01:00:00 8,0 7,9 - - 11 6 - - SW 1032,9 10 -
20.03.2019 00:00:00 8,2 8,2 - - 11 6 - - SW 1033,0 10 0,0
19.03.2019 23:00:00 8,3 8,1 - - 11 6 - - SW 1033,0 10 -
19.03.2019 22:00:00 6,8 6,8 - - 9 5 - - SW 1032,5 10 -
19.03.2019 21:00:00 7,4 7,3 - - 9 5 - - WSW 1032,5 10 -
19.03.2019 20:00:00 7,0 6,8 - - 9 5 - - WSW 1032,0 10 -
19.03.2019 19:00:00 7,4 6,9 - - 9 5 - - WSW 1031,3 10 -
19.03.2019 18:00:00 9,4 7,7 - - 11 6 - - W 1030,8 10 -
19.03.2019 17:00:00 10,4 8,7 - - 15 8 - - W 1030,0 10 -
19.03.2019 16:00:00 10,1 8,8 - - 16 9 - - WNW 1030,1 10 -
19.03.2019 15:00:00 10,4 9,6 - - 16 9 - - SW 1029,9 10 -
19.03.2019 14:00:00 10,3 10,3 - - 16 9 - - SW 1030,0 10 -
19.03.2019 13:00:00 9,1 9,0 - - 13 7 - - SSW 1030,3 10 -
19.03.2019 12:00:00 9,9 9,0 - - 13 7 - - SSW 1030,1 10 -
19.03.2019 11:00:00 10,3 8,9 - - 16 9 - - WSW 1029,8 10 -
19.03.2019 10:00:00 9,9 8,7 - - 11 6 - - WSW 1029,4 10 -
19.03.2019 09:00:00 9,5 8,6 9,2 9,7 9 5 - - W 1029,1 10 -
19.03.2019 08:00:00 9,1 8,7 - - 4 2 - - WNW 1028,6 10 -
19.03.2019 07:00:00 8,4 8,0 - - 4 2 - - NW 1028,2 10 -
19.03.2019 06:00:00 7,9 7,5 - - 5 3 - - WSW 1027,6 10 -
19.03.2019 05:00:00 7,9 7,5 - - 4 2 - - WNW 1027,4 45 -
19.03.2019 04:00:00 8,0 7,3 - - 5 3 - - WNW 1027,2 10 -
19.03.2019 03:00:00 8,1 7,3 - - 5 3 - - NW 1027,2 10 -
19.03.2019 02:00:00 7,9 7,0 - - 5 3 - - NNW 1027,0 45 -
19.03.2019 01:00:00 7,9 6,0 - - 5 3 - - NNW 1027,0 10 -
19.03.2019 00:00:00 7,2 6,0 - - 8 4 - - NNW 1026,8 10 -
18.03.2019 23:00:00 7,1 5,9 - - 5 3 - - NW 1026,6 10 -
18.03.2019 22:00:00 7,7 5,8 - - 9 5 - - NNW 1026,4 50 -
18.03.2019 21:00:00 8,2 6,2 - - 13 7 - - NW 1026,0 10 -
18.03.2019 20:00:00 8,1 6,7 - - 13 7 - - NW 1025,8 10 -
18.03.2019 19:00:00 8,2 7,1 - - 16 9 - - WNW 1025,4 10 -
18.03.2019 18:00:00 8,0 6,2 - - 21 11 - - WNW 1024,9 10 -
18.03.2019 17:00:00 8,2 5,9 - - 21 11 - - WNW 1024,6 40 -
18.03.2019 16:00:00 8,1 5,9 - - 21 11 - - WNW 1024,3 10 -
18.03.2019 15:00:00 8,1 6,2 - - 18 10 - - WNW 1024,7 10 -
18.03.2019 14:00:00 7,1 5,8 - - 13 7 - - W 1024,8 30 -
18.03.2019 13:00:00 8,6 4,0 - - 28 15 - - W 1024,8 10 -
18.03.2019 12:00:00 8,8 5,0 - - 18 10 - - WNW 1025,1 10 -
18.03.2019 11:00:00 9,0 4,2 - - 21 11 - - NW 1024,8 10 -
18.03.2019 10:00:00 8,9 4,5 - - 21 11 - - WNW 1024,6 10 -
18.03.2019 09:00:00 8,8 5,5 9,2 9,7 18 10 - - NW 1024,0 10 -
18.03.2019 08:00:00 8,6 5,2 - - 16 9 - - NW 1023,6 20 -
18.03.2019 07:00:00 8,0 5,0 - - 16 9 - - NW 1023,1 10 -
18.03.2019 06:00:00 7,9 4,1 - - 21 11 - - NW 1022,6 10 0,0
18.03.2019 05:00:00 7,7 4,9 - - 18 10 - - NW 1022,2 10 -
18.03.2019 04:00:00 7,7 5,1 - - 18 10 - - NW 1021,7 10 -
18.03.2019 03:00:00 7,8 5,2 - - 21 11 - - NW 1021,5 30 -
18.03.2019 02:00:00 8,0 5,6 - - 24 13 - - NW 1021,2 35 -
18.03.2019 01:00:00 8,3 5,6 - - 28 15 - - NW 1020,5 10 -
18.03.2019 00:00:00 8,3 5,9 - - 28 15 - - WNW 1019,9 10 0,0
17.03.2019 23:00:00 8,3 5,6 - - 29 16 - - WNW 1019,2 10 -
17.03.2019 22:00:00 8,4 5,6 - - 26 14 46 25 WNW 1018,9 10 -
17.03.2019 21:00:00 8,9 4,9 - - 29 16 61 33 WNW 1017,9 10 -
17.03.2019 20:00:00 8,3 4,2 - - 31 17 48 26 WNW 1017,5 10 -
17.03.2019 19:00:00 8,1 3,0 - - 34 18 48 26 WNW 1016,8 10 -
17.03.2019 18:00:00 7,9 0,9 - - 35 19 55 30 WNW 1016,1 10 -
17.03.2019 17:00:00 8,6 1,7 - - 31 17 50 27 WNW 1015,1 55 -
17.03.2019 16:00:00 8,5 2,6 - - 29 16 - - WNW 1014,1 10 -
17.03.2019 15:00:00 8,2 2,6 - - 29 16 - - WNW 1013,5 10 -
17.03.2019 14:00:00 8,1 2,9 - - 29 16 50 27 W 1012,7 10 -
17.03.2019 13:00:00 7,4 3,5 - - 34 18 54 29 W 1012,6 40 -
17.03.2019 12:00:00 6,9 2,7 - - 34 18 54 29 W 1012,0 10 -
17.03.2019 11:00:00 7,6 1,3 - - 34 18 54 29 W 1011,7 35 -
17.03.2019 10:00:00 6,9 2,3 - - 28 15 54 29 W 1011,1 35 -
17.03.2019 09:00:00 7,2 0,7 9,2 9,7 34 18 52 28 WNW 1010,1 35 -

tt = temperature
td = dewpoint
tt -20cm = temperature -20cm
tt -100cm = temperature -100cm
ff = wind speed
fx = gusts
dd = wind direction
ppp = reduced air pressure
vv = visibility
rr = precipitation

Next stations